RH
68 58 61 44 65 80 63 43 48 54 63 56 36 28 27 26 29 31 25 24 22 22 20 14 13 14 8 6 4 3 2 3 4 5 6 7 9 11 11 11 12 13 59 100 100 100 100
46 83 75 77 82 92 95 47 65 57 54 43 32 31 30 28 35 33 31 26 21 23 24 19 15 15 14 7 5 3 3 2 4 6 7 8 10 12 14 12 13 12 29 100 100 100 100
73 80 95 89 80 97 100 38 77 54 48 46 38 34 35 34 49 30 28 26 24 22 22 27 18 16 18 12 6 4 3 3 4 5 7 9 10 11 14 16 14 13 24 91 100 100 100
66 87 100 94 74 65 55 45 49 48 38 49 42 48 43 40 49 32 30 37 27 26 24 28 23 20 20 19 9 5 4 5 4 5 8 9 11 11 15 17 15 14 19 55 100 100 100
97 99 98 93 84 59 40 36 40 47 52 57 47 62 56 36 36 41 34 34 31 29 27 28 24 29 22 22 17 9 5 4 6 5 7 9 10 12 15 20 19 14 16 39 94 100 100
100 100 95 84 100 60 40 41 36 61 58 45 54 77 47 42 31 36 36 45 33 29 32 32 30 30 20 20 24 16 8 5 5 7 6 9 10 11 15 18 21 16 15 25 63 98 100
93 65 74 51 70 54 50 47 30 35 62 54 50 50 40 42 33 32 42 52 40 36 36 36 29 23 25 21 23 26 14 8 5 6 7 7 9 10 14 19 21 18 16 20 50 75 100
100 100 100 99 86 55 66 54 34 44 55 54 54 45 37 37 37 39 42 59 50 38 32 36 40 29 25 30 25 25 25 14 8 6 6 8 8 10 13 17 23 21 19 17 36 65 78
99 100 100 100 95 73 70 72 35 56 44 72 70 48 40 40 42 47 47 53 61 47 37 36 39 41 31 31 33 30 28 28 14 8 6 7 10 10 10 13 17 19 22 18 22 43 62
100 80 100 84 100 79 82 92 50 52 54 69 73 51 41 46 50 50 52 50 62 61 52 36 40 51 51 36 41 42 32 32 30 14 7 7 7 11 11 9 12 17 22 20 17 28 53
100 100 54 63 100 88 98 90 53 41 56 68 83 72 54 51 50 49 59 60 53 66 72 43 40 52 76 50 42 40 44 35 35 30 13 6 7 7 11 11 12 14 21 21 17 20 34
100 100 96 64 100 91 88 97 70 55 76 83 90 89 63 56 52 56 72 78 59 65 65 47 42 51 74 62 56 40 42 38 38 43 36 13 7 8 8 11 11 15 18 21 19 18 20
100 100 100 99 100 83 96 90 88 77 91 79 100 100 74 57 52 59 59 71 91 66 70 53 45 42 50 86 59 68 33 41 39 43 45 38 13 7 8 9 12 13 19 23 22 19 19
100 100 100 100 100 94 94 100 98 100 100 79 96 100 88 71 53 60 77 62 77 87 73 59 56 44 42 64 77 80 70 41 43 40 46 52 43 13 8 9 10 12 14 23 25 23 22
99 95 100 97 98 100 94 100 100 100 100 100 86 81 80 75 83 55 66 63 67 82 86 74 62 56 44 49 74 77 89 52 67 42 44 52 51 43 17 10 11 11 13 16 24 24 22
92 81 91 86 72 93 73 99 100 100 100 100 98 74 100 89 100 81 73 65 61 88 98 82 76 52 52 39 45 79 76 94 52 70 44 49 68 51 47 19 12 15 14 16 20 25 24
100 90 92 88 91 96 99 81 98 95 93 100 100 100 90 73 94 93 100 100 92 70 93 100 77 70 58 47 41 60 68 89 82 53 76 39 52 68 60 47 21 13 17 14 16 24 26
100 100 100 100 100 100 100 100 100 100 100 100 100 100 100 72 66 100 90 95 100 100 82 100 88 77 69 52 44 60 64 91 86 72 61 58 44 54 68 58 47 23 14 16 15 17 27
100 100 100 100 100 98 100 99 100 100 100 100 100 100 100 100 100 86 98 100 100 100 87 100 100 89 87 70 50 46 59 82 91 82 80 53 45 49 52 67 55 47 24 15 16 16 25
100 100 100 99 95 99 86 86 100 100 100 100 86 100 100 100 100 100 100 100 100 85 100 100 100 90 86 98 61 47 52 74 85 87 76 64 55 45 44 51 64 54 47 25 15 16 18
100 85 81 83 93 99 100 100 100 100 100 92 99 100 100 92 82 100 100 100 100 94 100 84 100 92 84 100 82 55 45 50 74 78 67 63 63 54 45 41 54 68 60 54 26 16 18
100 100 100 100 100 100 100 100 100 100 100 100 100 98 100 96 67 84 97 98 100 100 100 100 78 100 84 99 93 65 49 41 43 73 93 74 62 58 52 46 40 50 71 74 69 32 21
99 100 100 100 100 100 100 84 87 100 100 100 100 98 60 70 93 100 92 85 100 100 100 96 89 99 93 95 87 69 66 59 39 42 49 94 85 61 62 52 46 41 47 61 91 79 43
100 100 100 100 100 100 97 99 100 100 100 76 78 74 93 100 91 100 80 89 100 100 94 100 92 71 77 84 97 91 69 80 64 55 52 65 90 83 64 61 62 47 45 47 48 81 92
100 100 100 100 100 100 100 93 88 97 73 82 100 100 90 82 66 89 89 73 80 82 93 100 88 73 74 75 87 86 86 74 71 72 60 54 58 79 89 70 59 62 53 50 44 57 55
100 100 100 100 86 96 80 86 98 100 100 88 87 75 55 58 62 62 78 94 98 86 72 78 73 68 67 70 66 91 88 76 77 75 81 82 83 59 59 100 97 74 56 56 50 46 52
100 97 95 82 85 100 100 100 98 91 90 72 73 68 55 59 78 84 97 100 100 76 66 69 64 70 67 64 67 68 71 65 64 74 74 74 85 83 65 62 95 94 74 62 57 57 51
100 100 100 100 92 89 83 91 92 88 92 81 66 72 91 75 100 100 85 77 68 72 60 75 85 93 100 88 84 85 59 58 62 82 90 89 95 98 94 100 89 85 69 70 82 70 57
100 100 91 85 100 100 100 100 100 100 87 81 96 99 93 74 75 68 63 80 65 84 100 98 100 100 86 74 70 61 59 68 75 81 100 94 100 100 100 100 100 74 64 64 65 68 81
Wind_Speed
17 19 18 20 24 25 33 36 34 37 40 46 50 52 53 57 60 62 61 64 68 70 72 71 72 75 65 53 39 25 18 21 35 46 57 67 77 86 93 96 94 87 87 84 81 80 76
23 21 24 25 26 25 32 35 36 36 40 46 49 52 53 57 62 63 65 68 67 70 71 75 73 76 72 59 40 27 17 18 30 43 53 63 75 85 92 97 94 89 90 88 83 82 80
25 26 24 24 29 27 31 35 34 38 38 45 49 52 55 55 60 62 64 67 70 71 72 77 76 77 77 65 48 31 19 14 23 38 49 58 69 79 88 96 95 92 94 92 88 85 84
27 28 26 24 26 26 26 31 37 40 40 45 47 50 54 54 58 60 66 67 70 70 75 75 78 78 78 72 58 41 23 14 17 31 43 54 62 73 83 90 95 95 96 95 91 88 84
29 29 23 29 28 28 29 35 37 37 41 44 46 48 53 54 58 60 66 68 71 71 75 75 77 78 77 76 67 49 33 21 13 22 36 49 59 69 78 87 95 95 96 96 93 90 87
32 25 27 34 34 27 30 36 35 37 39 44 45 47 50 52 58 60 65 71 73 71 75 78 75 77 75 74 74 64 44 28 15 14 26 41 54 65 75 83 93 95 96 97 96 92 88
31 31 37 41 38 29 30 35 35 39 41 42 45 49 50 52 56 59 63 68 70 71 72 74 77 74 77 75 76 73 59 40 24 12 16 32 47 60 71 81 90 95 96 97 97 94 89
32 35 38 35 35 28 31 36 37 38 39 39 44 48 51 51 54 59 62 68 69 70 70 71 75 76 75 78 77 77 71 56 36 21 11 21 39 54 67 77 88 93 97 97 100 96 91
30 27 34 34 30 32 33 40 34 37 38 38 41 46 51 54 55 57 60 63 66 69 68 68 71 77 75 75 78 76 77 70 51 33 19 11 24 44 61 73 83 92 97 97 99 99 95
33 24 27 34 34 33 38 37 34 36 37 41 40 42 47 52 54 56 59 62 64 65 70 66 68 70 76 76 74 78 75 75 69 50 29 15 14 27 46 64 75 85 95 97 96 99 96
36 35 35 35 37 32 38 35 35 39 41 43 40 42 46 51 52 54 56 60 62 63 65 67 66 67 71 73 74 73 75 73 74 68 49 27 14 15 29 48 65 79 91 95 95 97 99
39 41 37 39 38 35 38 36 37 41 39 40 40 41 45 51 54 52 54 56 62 62 63 66 65 64 66 70 73 71 73 71 71 74 68 47 26 13 17 33 52 69 83 92 94 94 98
41 39 40 37 36 34 37 36 40 41 41 39 40 44 47 52 52 52 55 57 59 61 59 64 66 61 62 65 69 71 66 71 69 69 73 67 44 24 10 21 38 58 74 88 92 93 90
39 37 35 37 36 35 36 39 39 41 40 39 40 42 48 51 54 52 53 58 57 58 60 63 64 63 59 61 65 67 70 66 69 68 67 70 65 41 21 9 26 44 65 80 90 91 91
45 46 41 39 35 35 36 38 37 39 40 44 43 46 49 51 51 53 55 55 57 57 55 59 63 60 58 56 60 62 65 65 64 65 65 64 66 61 40 19 12 30 51 69 84 89 90
47 49 46 47 40 37 37 37 35 39 41 44 44 45 47 49 50 52 54 53 57 54 55 56 59 61 58 56 54 58 61 63 59 61 61 61 61 63 59 38 17 16 34 56 73 84 85
51 48 46 45 43 42 40 41 42 44 46 43 46 49 52 51 50 52 51 54 56 54 52 54 58 59 58 55 51 52 57 58 60 55 58 56 56 57 60 55 35 15 18 38 58 76 80
40 42 42 43 44 44 43 42 44 45 47 43 47 50 49 53 54 51 49 51 54 55 50 52 56 58 59 55 50 48 50 54 57 52 52 54 54 54 54 56 51 30 13 20 39 61 73
45 44 47 46 46 46 48 49 50 47 48 48 48 52 51 51 53 54 53 50 52 54 53 51 53 56 58 56 57 44 43 46 53 53 49 50 48 50 51 51 53 48 25 12 21 43 62
50 49 51 50 49 49 51 52 53 55 51 50 54 51 52 50 53 56 54 54 53 53 53 53 53 53 54 57 55 51 41 42 44 50 49 49 47 44 47 48 48 49 43 21 12 26 48
58 58 57 56 54 52 52 50 52 55 58 52 47 48 49 52 54 53 56 54 58 56 52 54 53 54 52 55 54 53 46 39 38 40 44 50 46 44 41 42 43 44 45 39 18 14 35
55 54 51 51 49 49 51 54 57 57 52 50 52 52 53 55 56 58 62 57 59 55 56 57 52 53 54 53 51 51 47 40 30 38 39 44 46 43 39 37 38 37 37 41 36 15 15
50 49 51 52 56 56 58 59 58 59 58 52 55 56 57 57 59 62 63 59 59 59 62 61 54 51 54 55 51 51 47 43 34 37 35 39 42 47 41 36 33 31 31 30 34 30 11
55 54 55 59 62 62 62 64 65 63 59 61 61 62 60 63 64 62 64 61 60 65 62 59 56 55 55 56 55 51 50 48 47 43 33 33 40 41 42 42 40 30 28 26 24 24 21
62 62 63 65 67 68 67 68 66 66 65 65 68 72 69 63 64 67 66 64 64 64 61 60 63 60 57 55 56 54 54 49 49 49 44 35 35 38 41 41 42 36 35 26 21 22 18
65 67 70 70 72 71 72 69 69 70 72 75 76 78 72 67 69 70 72 71 68 72 70 67 66 66 62 63 61 57 58 54 48 50 50 46 40 40 37 44 50 46 32 34 31 25 23
73 77 77 79 72 73 76 77 81 82 82 83 79 80 79 74 73 72 72 76 76 76 71 69 65 65 69 66 64 62 58 55 50 52 52 49 43 46 46 45 50 52 45 37 36 37 30
72 75 76 78 81 83 83 83 88 88 87 89 90 86 83 81 79 80 81 79 85 80 71 69 67 71 75 74 72 71 59 60 57 53 54 53 53 51 49 47 48 52 50 45 43 41 43
83 86 89 88 84 87 89 90 92 94 95 92 91 96 95 91 87 88 90 84 78 72 72 69 72 81 80 79 78 72 67 62 61 57 58 56 58 58 55 53 59 58 54 50 45 47 49
Wind_Direction
303 306 318 313 316 338 351 349 347 350 347 344 348 352 351 355 357 356 354 354 354 356 356 357 356 357 358 355 347 327 289 248 223 214 214 214 214 216 216 216 216 212 210 215 216 217 219
297 299 310 320 320 319 336 342 342 344 346 347 350 352 352 355 357 357 356 357 358 358 360 3 0 2 1 0 353 339 307 262 230 215 211 212 213 213 213 215 214 212 209 211 215 216 219
310 294 303 321 325 321 321 342 339 344 342 344 347 352 353 355 357 0 0 1 2 1 3 7 6 6 6 3 3 355 334 278 238 222 213 212 214 213 213 212 212 209 209 209 213 216 217
298 305 292 311 320 320 325 341 337 336 337 343 345 350 351 355 356 1 4 2 3 2 4 7 10 9 9 10 9 5 353 316 251 228 217 212 213 214 213 211 210 209 209 209 211 214 217
288 302 302 305 314 318 323 334 336 334 339 340 344 345 347 353 356 359 1 3 4 3 6 8 10 12 11 13 15 13 4 347 285 237 224 215 212 213 213 209 210 210 209 209 211 213 216
290 305 304 306 309 314 322 333 338 333 336 340 345 344 346 351 355 358 1 4 4 4 6 10 9 12 11 14 19 18 14 7 336 265 232 221 214 212 212 210 209 209 210 209 210 212 215
282 297 297 295 301 305 317 330 333 335 333 338 341 344 347 353 357 358 0 2 4 5 6 10 8 9 13 13 17 21 22 18 4 326 254 225 220 213 212 212 210 209 210 209 211 212 214
300 295 291 293 295 301 315 327 328 329 334 340 340 344 348 351 356 357 0 1 4 6 7 7 8 9 12 14 15 19 24 23 19 3 299 237 224 218 213 212 211 210 211 211 211 212 213
286 298 288 289 292 301 310 320 324 330 333 337 340 343 349 350 354 357 358 360 2 3 6 6 8 9 11 14 16 17 20 24 22 18 358 285 236 224 217 214 214 210 212 212 211 212 212
286 283 281 286 294 296 309 314 318 331 331 334 336 342 349 350 351 355 357 360 0 0 4 3 5 9 9 12 13 17 17 21 23 22 18 350 270 235 226 221 216 214 213 212 212 212 212
281 285 277 287 290 294 307 310 313 323 327 331 333 340 348 350 349 353 356 357 359 0 0 4 2 5 8 9 11 14 16 17 21 24 20 15 343 254 230 221 220 217 214 214 214 212 213
276 280 282 283 285 297 302 302 310 319 325 325 328 336 342 346 347 351 353 353 356 358 357 3 3 3 6 7 9 11 14 15 18 22 23 19 12 338 239 224 218 217 217 215 215 215 214
272 278 278 277 281 299 297 298 306 313 321 324 323 325 337 342 347 348 350 352 351 354 356 0 5 1 4 4 7 8 10 13 14 20 22 23 18 10 323 230 219 217 216 217 216 216 215
266 279 275 279 286 297 296 297 303 312 314 321 322 322 331 338 342 345 346 349 351 349 352 355 0 2 -0 4 4 5 7 10 12 13 20 22 22 17 5 291 227 221 217 216 217 217 216
265 270 275 284 288 291 293 297 299 307 310 314 317 320 325 332 337 341 342 345 350 348 348 352 357 359 359 360 3 4 4 7 8 11 12 19 22 22 16 356 271 231 221 218 217 217 217
268 271 278 285 280 282 292 299 301 303 306 306 309 316 318 328 330 334 337 339 341 345 345 348 353 357 357 356 358 2 2 1 5 8 10 12 18 21 21 13 347 262 232 223 221 219 217
270 274 277 283 279 282 288 289 297 299 304 304 305 312 317 320 326 330 328 332 334 342 344 338 346 352 355 352 352 358 360 0 1 4 6 9 12 18 19 20 11 340 255 232 225 222 219
267 268 268 275 276 281 288 290 292 293 300 298 302 312 311 316 320 325 330 329 326 332 339 337 339 345 352 355 351 352 357 358 359 0 3 7 7 9 15 18 19 7 327 253 232 225 220
262 264 272 274 278 282 284 288 288 292 297 300 297 308 309 310 315 317 327 318 325 325 330 332 334 339 343 348 351 345 351 354 354 357 358 360 4 6 6 11 16 18 5 305 246 228 222
255 262 268 271 279 284 287 287 289 294 296 298 303 299 305 301 310 313 319 316 316 321 320 324 327 332 338 342 345 347 342 346 349 355 354 355 357 1 3 3 9 13 17 2 278 231 221
261 268 272 276 281 285 283 285 290 294 297 298 304 301 301 302 305 305 309 310 310 316 312 321 320 325 332 337 337 343 339 337 345 350 355 355 354 353 357 359 1 6 11 18 3 246 221
272 273 274 271 274 275 278 284 287 289 293 296 297 299 300 301 300 303 304 305 305 308 309 311 317 318 324 329 332 333 338 335 338 337 338 342 350 350 347 350 353 357 2 8 20 9 228
272 273 273 275 272 276 281 288 287 288 290 292 292 296 300 301 302 301 305 303 298 303 306 308 310 310 314 321 325 326 328 331 327 336 335 331 329 340 343 337 341 345 348 354 3 17 12
272 275 277 278 276 279 281 282 285 285 284 288 290 296 297 298 299 298 302 302 298 301 305 302 304 308 311 316 317 320 321 320 319 325 331 323 323 323 332 333 327 331 330 336 341 350 5
268 270 272 274 277 279 277 280 281 282 284 287 288 291 294 294 297 297 298 299 301 302 302 302 303 305 305 312 309 312 314 313 314 318 322 323 326 316 314 320 320 313 312 315 315 322 322
265 267 268 272 278 277 277 278 278 280 281 285 287 289 291 289 293 296 293 295 296 300 299 297 299 302 303 305 307 307 306 307 308 307 310 312 307 324 317 306 307 317 295 298 298 293 293
267 269 269 274 275 273 276 276 280 283 286 287 287 288 290 293 294 294 292 294 294 296 295 294 298 296 300 302 301 304 304 305 305 300 302 306 305 306 314 319 300 303 308 288 289 284 280
267 268 269 273 274 275 278 281 282 284 285 288 291 290 289 291 291 291 292 293 292 290 293 290 294 296 294 296 300 299 303 301 302 299 296 299 299 300 303 296 297 296 298 296 288 280 276
266 269 271 276 276 275 278 280 281 283 285 288 288 288 288 288 288 291 293 290 291 290 284 287 291 290 290 294 296 297 298 301 299 298 293 296 297 297 295 289 287 294 290 288 285 280 278